{"data":{"norad_id":50486,"intl_designator":"2021-132T","name":"ONEWEB-0406","alt_names":[],"object_type":"PAYLOAD","status":"ACTIVE","operator":null,"country":"UK","launch_date":"2021-12-27","launch_site_code":"TYMSC","launch_vehicle":null,"mission":null,"orbit_class":"UNKNOWN","rcs_meters":null,"size_class":null,"mass_kg":null,"dimensions":null,"purposes":["comms"],"wikipedia_slug":null,"has_3d_model":false,"image_url":null,"decayed_at":null,"tle_current":{"epoch":"2026-09-19T23:15:25.551936Z","epoch_age_seconds":71719,"freshness":"FRESH","line1":"1 50486U 21132T   26262.96904574 -.00000044  00000+0 -14419-3 0  9995","line2":"2 50486  87.9162 316.6245 0002230 109.9575 250.1798 13.18686648234112","mean_motion":13.18686648,"eccentricity":0.000223,"inclination_deg":87.9162,"raan_deg":316.6245,"arg_perigee_deg":109.9575,"mean_anomaly_deg":250.1798,"bstar":-0.00014419,"rev_number":23411,"period_min":109.1995586809,"perigee_km":1188.0530109238,"apogee_km":1191.4282843547,"semimajor_km":7567.8776476393,"source":"CELESTRAK","updated_at":"2026-09-20T09:00:44.702849Z"}}}